Temperature
26 25 24 23 22 22 21 21 20 20 20 20 20 20 20 19 19 19 19 19 19 19 19 19 19 19 19 19 19 19 19 19 19 19 19 19 19 19 19 19 19 19 19
26 25 24 24 23 22 21 21 21 20 20 20 20 20 20 20 19 19 19 19 19 19 19 19 19 19 19 19 19 19 19 19 19 19 19 19 19 19 19 19 19 19 19
26 25 24 24 23 22 22 21 21 20 20 20 20 20 20 20 20 19 19 19 19 19 19 19 19 19 19 19 19 19 18 19 19 19 19 19 19 19 19 19 19 19 19
27 26 25 24 24 23 22 21 21 20 20 20 20 20 19 19 19 19 19 19 19 19 19 19 19 19 19 19 18 18 18 18 19 19 19 19 19 19 19 19 19 19 19
28 26 25 25 24 23 22 22 21 21 20 20 20 20 20 20 19 19 19 19 19 19 19 19 19 19 18 19 18 18 18 18 18 19 19 19 19 19 18 18 19 19 19
28 27 26 25 24 23 22 22 21 21 20 20 20 20 20 20 19 19 19 19 19 19 19 19 19 19 18 18 18 18 18 18 18 18 18 18 18 19 19 18 18 18 19
28 27 26 25 24 23 23 22 21 21 20 20 20 19 19 19 19 19 19 19 19 19 19 19 19 19 18 18 18 18 18 18 18 18 18 18 18 19 18 18 18 18 18
28 27 26 25 24 23 23 22 21 21 21 20 20 20 19 19 19 19 19 19 19 19 19 19 19 19 18 18 18 18 18 18 18 18 18 18 18 18 18 18 18 18 18
28 27 26 25 24 23 23 22 21 21 20 20 20 20 20 19 19 19 19 19 19 19 19 19 19 18 18 18 18 18 18 18 18 18 18 18 18 18 18 18 18 18 18
28 27 26 25 24 23 23 22 22 21 21 20 20 20 20 19 19 19 19 19 19 19 19 19 18 18 18 18 18 18 18 17 17 17 17 17 17 18 18 18 18 18 18
28 27 26 25 24 23 23 22 21 21 21 20 20 19 19 19 19 19 19 19 19 19 18 18 18 18 18 18 18 18 17 17 17 17 17 17 17 17 17 17 17 17 17
27 26 26 25 24 23 22 22 21 21 20 20 20 19 19 19 19 19 19 18 18 18 18 18 18 18 18 17 17 17 17 17 17 17 17 17 17 17 17 17 17 17 17
27 26 25 24 23 23 22 21 21 21 20 20 20 19 19 19 18 18 18 18 18 18 18 18 18 18 17 17 17 17 17 17 17 17 17 17 17 17 17 17 16 16 16
26 26 25 24 23 22 22 21 21 20 20 20 19 19 19 18 18 18 18 18 18 17 17 17 18 17 17 17 17 17 17 16 16 16 16 16 16 16 16 16 16 16 16
26 25 24 23 22 22 21 21 21 20 20 20 19 19 19 18 18 18 18 18 17 17 17 17 17 17 17 17 17 17 16 16 16 16 16 16 16 16 16 16 16 16 16
25 25 24 23 22 21 21 20 20 20 20 20 19 19 18 18 18 18 17 17 17 17 17 17 17 17 17 17 17 16 16 16 16 16 16 16 16 16 16 16 15 15 15
25 24 23 22 22 21 21 20 20 20 19 19 19 18 18 18 17 17 17 17 17 17 17 16 16 16 17 17 16 16 16 16 16 16 16 15 15 15 15 15 15 15 15
24 24 23 22 21 21 20 20 19 19 19 19 18 18 17 17 17 17 17 16 16 16 16 16 16 16 16 16 16 16 16 15 16 16 15 15 15 15 15 15 15 15 15
24 23 23 22 21 20 20 19 19 19 18 18 18 17 17 17 17 16 16 16 16 16 16 16 16 16 16 16 15 15 15 15 15 15 15 15 15 15 15 15 14 14 14
23 22 22 22 21 20 19 19 19 18 18 18 17 17 17 17 16 16 16 16 16 16 16 16 16 16 16 16 15 15 15 15 15 15 15 15 15 15 14 14 14 14 14
23 22 22 21 20 19 19 19 18 18 18 17 17 17 17 16 16 16 16 16 16 15 15 15 15 15 15 15 15 15 15 14 14 14 14 14 14 14 14 14 14 14 14
23 22 21 21 20 19 19 18 18 17 17 17 17 16 16 16 16 16 16 15 15 15 15 15 15 15 15 15 15 15 14 14 14 14 14 14 14 14 14 14 14 14 13
22 21 20 20 19 19 18 18 17 17 16 16 16 16 16 16 15 15 15 15 15 15 15 15 14 14 14 14 14 14 14 14 14 14 14 14 14 14 14 14 14 13 13
21 20 19 19 18 18 17 17 17 16 16 16 16 16 16 15 15 15 15 15 15 15 14 14 14 14 14 14 14 14 14 14 13 13 13 13 13 13 13 13 13 13 13
20 19 19 18 18 17 17 16 16 16 16 15 15 15 15 15 15 15 15 15 15 15 14 14 14 14 14 14 14 14 13 13 13 13 13 13 13 13 13 13 13 13 12
18 18 18 17 17 16 16 16 16 16 15 15 15 15 15 15 15 15 15 15 15 14 14 14 14 14 14 13 13 13 13 13 13 13 12 12 13 13 13 13 12 12 12
Wind_Speed
13 13 12 12 12 11 10 8 7 6 4 4 3 2 2 2 1 2 3 3 2 3 2 2 2 2 1 1 1 1 2 2 1 1 1 1 2 2 3 2 2 3 4
13 13 12 12 13 12 10 9 8 7 6 4 3 2 2 3 2 1 3 3 2 2 3 2 2 2 1 2 1 1 1 2 2 1 1 0 1 2 3 2 3 3 2
15 14 13 12 12 12 11 10 9 8 7 5 4 3 2 2 2 2 2 2 2 3 1 2 2 2 2 2 2 2 3 2 1 1 1 1 1 1 1 2 1 2 2
14 14 13 13 13 13 12 9 8 7 7 6 5 5 4 3 2 2 2 3 2 2 2 1 1 1 1 1 2 2 2 2 2 1 1 1 1 1 1 2 1 2 2
14 14 13 12 11 12 12 10 9 7 7 6 6 5 4 3 2 2 3 3 3 2 2 2 2 2 1 1 1 1 1 1 2 2 1 1 1 2 2 2 2 1 2
13 13 12 11 10 10 10 10 9 8 7 7 6 6 4 4 3 3 3 3 3 3 3 3 2 2 1 1 2 2 2 2 2 2 2 1 1 2 2 2 2 2 2
12 12 11 11 9 9 9 9 9 8 7 7 6 5 5 4 4 4 3 3 3 2 2 2 3 3 2 2 2 2 3 3 2 3 2 2 2 2 2 2 2 2 2
11 10 11 10 9 9 9 9 9 8 7 7 5 4 4 4 4 4 4 3 2 2 2 3 3 3 2 2 2 2 3 2 3 4 3 3 3 2 2 2 2 2 2
10 9 10 10 10 8 8 9 9 8 7 7 6 5 5 4 3 3 3 2 1 2 3 3 2 2 2 2 2 2 3 2 3 3 3 3 3 3 2 3 2 2 2
9 9 9 9 10 9 8 8 9 8 7 6 5 5 5 4 3 3 3 2 2 1 2 2 2 2 1 2 2 2 2 2 3 3 2 2 3 3 2 2 3 3 2
9 9 9 8 8 8 8 7 7 8 7 6 5 4 5 5 4 4 3 3 2 2 2 2 2 2 2 2 2 2 3 2 3 3 2 3 2 3 2 2 2 1 1
7 8 8 8 7 6 6 5 5 6 6 5 4 4 4 4 4 4 4 4 3 2 2 3 3 3 2 2 2 3 3 3 3 3 2 3 3 2 3 2 2 1 1
7 8 7 7 6 5 5 5 4 4 5 5 5 4 4 4 4 3 3 3 3 3 3 3 3 2 2 3 3 3 3 3 3 3 3 3 3 3 3 2 2 2 2
7 7 7 6 5 5 4 4 4 3 3 4 4 4 4 3 3 3 3 3 3 3 3 3 3 3 2 3 3 3 3 3 3 2 2 2 3 3 3 3 2 2 2
7 7 7 6 5 5 4 3 3 3 3 2 3 3 2 2 2 2 3 2 3 4 3 2 2 3 3 3 2 4 4 3 3 3 3 2 2 2 2 3 2 2 2
7 7 7 7 6 5 4 3 3 3 3 2 2 2 2 2 2 2 2 3 3 3 3 3 3 3 3 2 2 3 3 3 3 4 3 3 2 2 2 2 2 3 3
7 7 6 7 6 6 5 4 3 3 3 3 2 2 2 2 2 3 2 3 3 3 3 3 3 3 2 1 2 3 4 4 3 4 3 4 2 1 1 2 3 3 5
6 6 6 6 6 6 5 4 4 3 3 3 2 2 2 2 2 2 2 2 3 3 3 3 3 2 2 1 1 4 4 4 3 3 3 3 2 2 2 3 3 3 3
4 5 5 6 5 5 5 4 4 3 3 2 2 2 2 3 3 3 3 3 3 3 3 3 3 3 2 2 1 2 3 4 4 3 2 2 2 3 2 3 3 3 2
4 5 6 6 6 5 5 4 4 4 3 2 2 2 2 3 3 3 2 2 3 3 3 3 2 2 2 2 2 2 3 3 3 3 3 2 2 3 3 3 3 3 3
4 3 5 6 6 5 5 4 3 3 2 2 2 1 1 2 2 2 2 2 2 3 3 2 2 2 2 2 3 3 3 4 3 2 2 2 3 3 4 4 3 3 3
3 3 3 4 5 6 5 4 2 2 2 1 1 1 1 2 2 2 2 2 2 2 2 2 3 2 2 1 3 4 5 4 3 3 2 2 4 5 5 5 5 4 3
3 3 3 4 5 5 4 3 2 2 2 1 1 1 1 1 2 2 3 2 3 3 3 3 3 2 1 1 2 4 5 5 3 3 3 3 4 5 5 7 7 4 3
3 3 3 4 4 4 4 3 3 3 2 2 2 2 2 2 1 2 3 3 2 3 3 3 2 2 1 1 0 1 2 2 3 3 3 4 6 6 6 5 5 5 4
2 3 2 2 3 3 3 3 3 3 2 2 2 2 2 2 2 1 1 2 1 2 3 2 2 1 1 0 1 1 2 2 2 2 2 3 3 4 4 4 4 4 4
2 2 3 3 3 3 3 3 3 3 2 2 2 2 2 2 2 1 0 3 1 1 1 1 1 1 1 2 2 2 1 2 1 1 3 3 3 3 3 3 3 3 4
Wind_Direction
170 167 169 165 161 160 162 168 172 168 178 184 201 186 174 198 180 165 161 154 179 189 197 209 205 218 173 161 168 208 240 235 235 274 300 236 216 201 208 210 178 180 171
167 166 172 170 168 166 169 170 175 179 195 192 195 191 193 202 176 183 145 143 179 196 192 194 215 205 170 169 197 200 274 268 218 204 207 231 289 282 212 201 197 188 158
170 169 175 177 172 169 173 180 180 182 196 193 195 197 189 213 180 165 156 161 184 184 228 176 212 216 193 177 193 210 228 247 254 205 210 195 222 281 263 239 198 174 167
171 172 177 181 178 173 174 171 170 178 183 188 194 199 202 213 195 177 162 177 185 188 198 182 229 231 231 185 217 205 248 255 262 255 216 187 179 216 274 271 233 219 188
173 173 177 180 178 174 172 168 167 173 177 188 195 209 207 204 199 180 185 196 189 185 193 176 220 232 216 219 233 251 266 267 271 269 261 233 234 245 232 254 251 246 214
172 168 171 167 170 168 166 164 163 171 178 188 195 203 210 204 199 196 195 210 201 195 196 189 201 219 223 234 212 236 242 262 293 299 285 256 229 246 229 236 240 238 231
165 165 165 161 161 161 161 158 160 169 176 183 192 194 203 204 201 209 206 217 210 197 194 195 199 210 213 227 221 241 245 238 249 261 275 277 256 257 252 246 248 247 250
162 159 163 160 159 163 161 159 160 170 177 181 189 184 192 211 211 214 217 218 216 184 185 177 193 210 216 230 230 240 249 236 241 254 264 273 267 255 242 242 238 255 259
154 153 154 156 158 166 164 163 159 165 174 181 182 181 191 213 216 215 224 218 229 196 179 176 179 196 201 215 226 242 243 233 234 255 263 269 273 265 248 238 223 226 257
150 153 155 153 158 169 165 159 158 165 169 171 182 189 194 201 205 218 216 226 215 216 176 180 179 184 204 213 213 239 241 238 247 246 253 272 284 287 275 248 242 227 236
155 155 150 151 152 156 157 157 154 162 168 172 177 180 186 196 203 210 207 221 229 212 192 193 200 205 209 213 224 243 241 234 254 262 253 264 282 301 310 295 276 256 238
150 150 148 148 151 150 148 147 157 166 168 163 168 177 183 193 207 210 209 209 217 218 209 207 214 221 216 220 224 251 252 244 248 257 257 266 272 279 296 305 308 301 270
139 144 142 142 144 144 143 148 158 164 165 161 173 175 190 203 214 210 213 205 205 217 215 211 211 222 229 234 232 237 243 247 247 247 251 258 265 268 275 271 284 282 283
142 147 141 135 131 132 131 144 161 157 160 164 175 172 193 208 206 206 210 206 204 213 222 229 224 219 225 236 242 249 241 245 249 247 246 255 254 260 266 253 256 268 270
154 147 142 134 134 133 132 133 140 139 143 146 171 168 181 207 208 205 215 212 211 221 219 239 250 234 226 244 243 255 245 245 251 249 242 237 225 238 272 276 282 280 272
156 154 150 147 147 145 146 144 146 139 136 153 170 164 183 201 208 218 224 223 220 220 217 228 248 258 259 268 250 246 261 253 249 254 245 220 206 215 224 268 284 265 260
162 163 159 160 157 157 152 153 151 153 162 167 166 158 184 208 223 232 227 230 232 228 228 229 230 237 241 274 295 270 262 250 254 256 257 262 246 201 254 240 232 245 247
164 162 164 161 161 157 150 152 160 157 162 168 166 171 194 219 231 238 237 240 248 245 238 236 235 223 227 231 290 300 268 257 258 259 248 238 242 260 255 261 254 249 251
152 155 172 166 159 159 152 155 161 159 172 178 182 193 207 221 228 235 241 239 237 245 240 227 223 211 219 222 216 260 257 255 252 244 238 228 223 253 251 252 257 265 278
145 163 175 162 159 152 153 165 174 173 186 192 194 205 209 220 228 236 247 249 238 243 250 235 216 208 205 185 197 232 263 260 259 238 216 208 218 244 241 242 246 258 275
142 152 158 158 150 148 153 170 177 180 175 179 185 195 200 221 223 218 236 249 262 255 251 239 219 206 196 177 199 212 251 274 269 253 238 219 199 211 232 236 241 246 265
124 133 132 144 142 150 156 163 165 160 151 160 173 182 201 259 237 206 235 248 263 257 244 238 237 215 176 159 213 225 243 275 275 273 273 236 205 219 233 240 250 251 251
114 123 147 143 135 143 149 163 153 138 140 148 173 188 195 245 225 223 236 238 240 250 255 244 241 232 188 171 204 227 250 265 265 276 276 271 239 239 238 236 238 235 238
103 132 153 145 144 148 151 154 146 140 146 168 191 208 215 225 224 224 235 238 247 255 260 267 266 248 188 136 177 262 269 277 261 272 276 259 246 250 253 244 226 219 227
82 107 121 131 127 125 132 147 148 146 161 184 212 221 222 222 203 221 288 261 273 242 249 265 278 284 264 249 245 248 273 285 301 305 272 255 239 233 233 235 223 216 218
81 103 114 124 120 122 133 145 143 145 169 199 232 242 227 227 228 202 341 30 55 127 132 125 174 193 167 183 196 227 260 287 268 244 268 266 260 253 242 235 235 232 227
Height
1509 1512 1515 1517 1519 1521 1523 1525 1527 1528 1529 1531 1532 1533 1534 1535 1536 1536 1536 1537 1537 1538 1538 1539 1539 1540 1540 1541 1541 1541 1542 1542 1543 1543 1543 1543 1544 1544 1544 1545 1545 1546 1546
1506 1510 1513 1515 1517 1519 1521 1523 1525 1526 1528 1530 1531 1532 1533 1534 1535 1535 1535 1535 1536 1537 1538 1538 1538 1539 1539 1540 1540 1540 1541 1541 1542 1542 1542 1542 1543 1542 1543 1543 1543 1544 1545
1502 1507 1510 1513 1515 1517 1519 1521 1522 1524 1526 1528 1530 1531 1532 1533 1534 1534 1534 1535 1535 1536 1536 1537 1537 1538 1538 1539 1539 1539 1540 1540 1541 1541 1542 1541 1541 1541 1542 1542 1542 1543 1543
1499 1503 1507 1510 1513 1515 1517 1519 1521 1522 1524 1526 1528 1529 1531 1531 1532 1533 1533 1534 1534 1535 1535 1535 1536 1537 1537 1537 1538 1538 1539 1539 1539 1539 1540 1540 1540 1540 1540 1541 1541 1541 1541
1495 1500 1504 1507 1510 1513 1515 1516 1518 1520 1522 1524 1525 1527 1529 1530 1531 1531 1532 1532 1533 1533 1534 1534 1534 1535 1535 1536 1536 1537 1537 1537 1537 1537 1538 1538 1538 1539 1539 1539 1539 1539 1539
1492 1497 1501 1504 1508 1510 1513 1514 1515 1518 1519 1521 1523 1525 1526 1528 1529 1529 1530 1531 1531 1532 1532 1532 1532 1533 1533 1534 1534 1535 1535 1535 1535 1535 1536 1536 1536 1536 1537 1537 1537 1537 1537
1489 1494 1498 1502 1505 1508 1510 1512 1513 1515 1517 1519 1521 1522 1524 1525 1526 1527 1528 1529 1530 1530 1530 1530 1530 1531 1531 1532 1533 1533 1533 1533 1533 1534 1534 1534 1534 1534 1535 1535 1534 1534 1534
1486 1491 1495 1499 1502 1505 1508 1510 1511 1513 1515 1516 1518 1520 1522 1523 1524 1525 1526 1527 1528 1528 1528 1528 1528 1529 1529 1530 1530 1530 1531 1531 1532 1532 1532 1532 1532 1532 1532 1533 1533 1532 1532
1484 1489 1493 1496 1500 1503 1505 1507 1509 1511 1513 1514 1516 1518 1519 1521 1522 1523 1524 1525 1526 1526 1527 1527 1527 1527 1527 1528 1528 1528 1529 1529 1529 1529 1529 1529 1529 1530 1530 1530 1530 1531 1529
1484 1487 1491 1495 1498 1501 1503 1506 1507 1509 1511 1512 1514 1515 1516 1518 1519 1521 1522 1523 1524 1525 1525 1525 1525 1525 1525 1525 1526 1526 1526 1526 1527 1527 1527 1527 1527 1527 1527 1527 1527 1527 1527
1482 1486 1490 1493 1497 1500 1502 1504 1506 1507 1509 1511 1512 1513 1514 1516 1517 1518 1519 1520 1521 1522 1522 1523 1523 1523 1523 1523 1523 1523 1523 1523 1524 1524 1524 1524 1524 1524 1524 1524 1524 1524 1525
1482 1486 1489 1493 1496 1499 1501 1503 1505 1507 1508 1509 1510 1511 1512 1514 1514 1515 1516 1517 1518 1519 1520 1520 1520 1520 1521 1521 1521 1521 1521 1521 1521 1521 1521 1521 1521 1521 1521 1521 1521 1522 1522
1482 1486 1489 1492 1495 1498 1500 1502 1504 1505 1507 1507 1508 1510 1510 1511 1512 1513 1514 1515 1515 1516 1517 1517 1517 1517 1518 1518 1518 1518 1519 1518 1518 1518 1518 1518 1518 1518 1518 1518 1519 1519 1519
1482 1485 1489 1492 1495 1497 1499 1501 1502 1504 1505 1506 1507 1507 1508 1510 1510 1511 1511 1512 1512 1513 1513 1514 1514 1514 1515 1515 1515 1516 1516 1515 1515 1515 1515 1515 1515 1515 1515 1515 1515 1516 1516
1482 1485 1488 1491 1493 1496 1498 1499 1501 1502 1503 1504 1505 1505 1506 1507 1508 1508 1509 1509 1509 1510 1511 1511 1511 1512 1512 1512 1512 1512 1512 1512 1512 1512 1512 1512 1512 1512 1512 1512 1512 1512 1512
1480 1483 1486 1489 1492 1494 1496 1498 1499 1500 1501 1502 1503 1503 1504 1504 1505 1505 1506 1506 1507 1507 1507 1507 1508 1508 1509 1509 1509 1509 1509 1508 1508 1508 1509 1509 1508 1508 1508 1508 1509 1509 1509
1479 1482 1485 1487 1489 1492 1493 1495 1497 1498 1500 1500 1501 1501 1501 1502 1502 1503 1503 1504 1504 1504 1504 1504 1504 1504 1505 1505 1505 1505 1505 1505 1504 1504 1505 1505 1504 1505 1505 1504 1505 1505 1505
1477 1480 1483 1486 1488 1490 1492 1493 1495 1496 1497 1498 1499 1499 1499 1499 1500 1500 1500 1500 1501 1501 1501 1501 1501 1501 1501 1501 1502 1502 1502 1501 1501 1500 1501 1501 1500 1501 1501 1501 1501 1501 1501
1477 1480 1482 1484 1486 1488 1489 1491 1493 1494 1495 1496 1496 1497 1497 1497 1497 1497 1497 1497 1497 1497 1497 1498 1498 1498 1498 1498 1497 1498 1498 1498 1497 1497 1497 1497 1497 1497 1498 1497 1497 1497 1497
1475 1478 1479 1482 1484 1486 1487 1489 1490 1491 1492 1493 1494 1494 1494 1494 1494 1494 1495 1495 1494 1494 1495 1495 1495 1495 1495 1494 1494 1494 1494 1494 1494 1494 1494 1494 1494 1494 1494 1494 1494 1494 1494
1474 1476 1478 1480 1481 1483 1485 1486 1488 1489 1490 1491 1491 1492 1492 1492 1492 1492 1492 1492 1492 1492 1491 1491 1491 1491 1491 1491 1491 1490 1490 1491 1491 1491 1490 1491 1491 1491 1491 1491 1491 1491 1491
1472 1474 1476 1478 1479 1481 1482 1484 1485 1486 1487 1488 1488 1489 1489 1489 1490 1490 1489 1489 1489 1489 1489 1489 1488 1488 1488 1488 1488 1487 1488 1488 1488 1487 1487 1487 1488 1488 1488 1488 1488 1488 1488
1470 1473 1475 1476 1478 1479 1480 1482 1483 1484 1484 1485 1485 1486 1486 1486 1487 1487 1487 1487 1487 1487 1487 1487 1486 1486 1486 1485 1485 1485 1485 1485 1484 1484 1484 1484 1484 1484 1484 1485 1484 1485 1485
1469 1471 1473 1474 1476 1477 1478 1480 1481 1481 1482 1482 1483 1483 1484 1484 1484 1485 1485 1485 1485 1485 1485 1485 1484 1484 1484 1483 1482 1482 1482 1481 1481 1481 1481 1481 1481 1481 1481 1481 1481 1481 1481
1469 1470 1472 1473 1475 1476 1477 1478 1479 1479 1480 1480 1481 1481 1482 1482 1482 1482 1483 1482 1482 1482 1482 1482 1482 1482 1481 1480 1480 1479 1479 1478 1478 1478 1477 1477 1477 1477 1477 1477 1477 1477 1478
1469 1470 1471 1472 1473 1474 1475 1476 1477 1477 1478 1478 1479 1479 1479 1480 1480 1480 1480 1480 1480 1480 1479 1479 1479 1479 1479 1478 1477 1477 1476 1476 1475 1475 1475 1475 1474 1474 1474 1474 1474 1474 1475